Главная страница
METAR-TAF:

METAR-TAF

Аэропорты :

Linden, Нью-Джерси, США

широта: 40-37-03N, долгота: 074-14-40W, высота над уровнем моря: 7 м

Текущие метеонаблюдения

Эта сводка был подготовлена 1 час и 5 минут назад, в 12:55 UTC
Ветер 4 Узел от восточно-юго-восточный
Температура 14°C
Влажность 82%
Давление 1006 hPa
Видимость: 16.1 км
Сплошная облачность на высоте 1500 фута

METAR: KLDJ 261255Z AUTO 11004KT 10SM OVC015 14/11 A2972 RMK AO2 T01390113

Время: 10:00 (14:00 UTC)


TAF: отсутствует

Метеонаблюдения и прогнозы для более 4000 аэропортов (сводки METAR и TAF).

Имеющиеся станции представлены на карте желтыми и красными точками.

Чтобы увидеть название станции, наведите на нее мышь.

Затем щелкните, чтобы увидеть метеонаблюдения и метеопрогнозы.

Управление картой: чтобы увеличить масштаб, щелкните зеленые кнопки с черным крестиком; чтобы уменьшить масштаб, щелкните зеленую кнопку с тире; для просмотра соседних карт щелкайте зеленые стрелки.


METAR-TAF: